CAPE
1960 1652 1698 1800 1323 1244 1269 1361 2002 2222 2314 2400 2238 2083 1674 1113 718 420 203 166 92 63
1833 1860 1716 2070 2174 1392 2081 1394 1656 1964 2149 2296 2229 2119 1717 1206 795 275 267 225 200 95
1707 1862 1915 2074 2136 2055 2255 1954 1721 2163 2460 2520 2253 2117 1759 1370 1043 469 227 161 205 156
1726 1828 1990 2011 2138 2147 2308 2424 2408 2248 2382 2394 2223 2095 1810 1535 1077 648 537 240 252 242
1922 1974 1992 2050 2108 2162 2220 2330 2430 2453 2244 2258 2220 2146 1859 1604 1158 905 716 515 315 231
1957 1949 1993 2055 2191 2242 2189 2242 2202 2264 2409 2161 2178 2081 1904 1766 1465 1038 879 678 571 400
1868 1962 1963 2074 2197 2249 2238 2223 2282 2267 2369 2446 2332 2066 1817 1696 1627 1319 1018 840 755 617
2081 2183 2215 2249 2245 2303 2371 2220 2282 2203 2234 2352 2343 1825 2107 1867 1732 1558 1302 1084 883 777
2128 2245 2268 2325 2369 2419 2438 2428 2440 2277 2206 2238 1849 1259 1016 1649 1885 1587 1801 1831 1289 976
2188 2230 2314 2357 2446 2507 2566 2662 2591 2490 2302 2247 2247 707 331 468 2152 2103 2178 2157 1911 1250
2289 2287 2327 2364 2370 2399 2454 2594 2752 2684 2624 2402 2249 632 102 199 1635 2383 2462 2249 1994 1625
2252 2377 2483 2484 2416 2375 2341 2357 2452 2740 2848 2783 2646 557 32 68 1444 2166 2490 2065 1856 1515
2380 2435 2508 2591 2579 2593 2503 2390 1999 2424 2760 2427 2875 840 0 45 1565 2016 2076 1762 1715 344
2651 2682 2533 2701 2767 2858 2594 2600 2822 2761 2690 2782 2461 2392 0 0 1648 1926 1640 1206 903 452
CIN
-93 -95 -80 -63 -44 -42 -31 -29 -32 -37 -32 -35 -35 -30 -45 -72 -104 -146 -157 -158 -160 -125
-118 -102 -98 -78 -67 -53 -26 -31 -46 -46 -44 -42 -39 -34 -54 -74 -142 -207 -197 -179 -195 -194
-190 -153 -134 -102 -87 -75 -42 -50 -42 -44 -40 -41 -50 -41 -70 -93 -135 -215 -246 -243 -252 -258
-222 -192 -149 -117 -115 -109 -84 -60 -39 -47 -38 -44 -58 -60 -75 -107 -143 -217 -204 -276 -263 -248
-266 -243 -210 -167 -157 -149 -116 -97 -63 -48 -50 -45 -57 -70 -99 -110 -148 -191 -205 -226 -266 -263
-314 -282 -261 -233 -193 -165 -152 -123 -99 -70 -46 -74 -76 -95 -124 -125 -136 -178 -183 -201 -219 -236
-412 -384 -357 -314 -238 -198 -192 -163 -142 -126 -89 -77 -88 -116 -133 -144 -139 -161 -183 -194 -181 -192
-499 -429 -372 -314 -285 -247 -202 -203 -190 -180 -153 -125 -108 -141 -131 -151 -161 -161 -177 -178 -183 -168
-483 -449 -433 -368 -313 -263 -238 -218 -178 -192 -195 -168 -187 -269 -369 -218 -146 -173 -140 -100 -144 -129
-500 -479 -450 -408 -353 -326 -276 -212 -206 -201 -214 -216 -214 -491 -691 -602 -129 -130 -111 -85 -61 -94
-492 -501 -445 -389 -414 -396 -330 -293 -242 -232 -227 -229 -264 -631 -993 -845 -237 -122 -89 -86 -63 -61
-586 -515 -444 -445 -476 -446 -358 -338 -324 -247 -201 -224 -259 -774 -1227 -1083 -310 -153 -88 -104 -76 -87
-558 -516 -497 -528 -473 -404 -383 -390 -376 -286 -235 -278 -199 -710 -0 -913 -274 -186 -120 -122 -113 -442
-499 -498 -468 -339 -275 -257 -237 -188 -197 -258 -272 -244 -292 -272 -0 -0 -243 -164 -137 -181 -260 -358
Wind_Speed
19 13 13 14 12 11 11 10 11 12 11 12 11 10 9 7 7 8 7 7 6 5
17 17 15 16 13 12 11 10 12 12 12 13 12 12 11 8 10 9 8 7 8 6
19 19 17 14 15 15 13 13 12 13 13 12 13 13 12 10 10 10 8 7 9 8
19 19 17 16 16 15 15 14 14 14 13 13 13 13 13 12 12 13 11 10 10 10
19 18 19 19 19 17 17 15 15 15 14 14 14 13 15 15 13 14 14 13 12 11
20 20 21 20 19 18 17 17 16 15 15 15 15 15 15 16 15 15 15 14 14 13
21 22 21 20 19 19 19 18 17 17 17 16 16 16 16 16 16 16 15 16 15 15
21 21 20 20 20 19 19 18 19 18 18 18 17 15 17 17 17 17 17 16 16 16
19 20 21 20 20 19 20 19 18 19 19 19 15 18 20 18 17 17 17 16 16 14
19 20 20 19 19 21 21 18 20 20 20 21 20 20 23 24 16 16 16 16 14 13
18 19 17 18 20 20 19 21 19 20 20 19 18 19 24 27 21 17 17 17 16 15
19 19 19 21 22 19 17 18 19 18 20 21 20 22 26 24 21 20 18 15 16 16
18 18 21 22 19 16 17 18 14 16 18 19 19 18 21 25 16 20 15 15 16 18
17 17 14 12 11 12 12 10 13 16 16 17 18 18 23 29 20 14 13 14 14 13
Wind_Direction
210 211 216 215 220 218 220 216 208 204 209 210 205 204 197 198 206 205 211 210 216 220
208 211 211 215 210 216 220 220 212 208 211 214 208 202 192 205 201 200 207 209 209 215
206 208 212 208 210 212 213 217 209 209 208 206 208 206 197 202 203 198 204 210 204 211
206 205 207 207 211 211 207 207 208 209 208 207 205 205 204 206 201 201 204 205 205 209
207 206 205 209 208 204 208 205 210 208 210 212 209 205 208 209 208 207 209 207 203 209
204 203 208 209 209 206 206 207 209 209 210 211 212 209 211 212 210 211 214 212 208 205
203 205 208 208 207 207 204 204 203 205 207 210 211 213 210 211 211 214 218 217 216 210
203 204 207 208 207 208 206 207 205 201 206 207 210 209 207 207 209 208 218 218 218 218
204 203 206 205 206 207 209 207 208 207 204 206 210 200 192 201 209 208 215 217 217 218
203 207 207 204 203 208 208 207 209 208 208 210 212 191 189 195 209 211 213 216 214 205
203 208 204 205 210 210 206 207 209 211 208 211 213 189 189 194 210 215 214 215 212 206
200 201 199 206 210 209 207 209 213 213 212 213 215 187 189 185 207 219 215 211 207 203
201 203 204 210 210 208 211 214 212 218 220 221 226 194 187 190 208 214 204 196 201 189
203 205 209 213 216 217 223 237 231 223 216 217 214 218 190 190 211 209 200 198 190 183